This is the latest recevied weather packets stored in our database for station/object WA5TET. If no packets are shown the sender has not sent any weather packets the latest 10 day(s).
| Time | Temp. | Humidity | Pressure | Rain* | Wind** | Luminosity | Snow |
|---|---|---|---|---|---|---|---|
| 1787785318 | 37.78° C | 31% | 1010.6 hPa | 0 mm | - | 37 W/m² | - |
| 1787785017 | 38.33° C | 30% | 1010.4 hPa | 0 mm | - | 54 W/m² | - |
| 1787784717 | 38.89° C | 29% | 1010.4 hPa | 0 mm | - | 308 W/m² | - |
| 1787784416 | 38.89° C | 29% | 1010.4 hPa | 0 mm | - | 332 W/m² | - |
| 1787784116 | 38.89° C | 29% | 1010.5 hPa | 0 mm | - | 357 W/m² | - |
| 1787783813 | 38.89° C | 30% | 1010.7 hPa | 0 mm | - | 376 W/m² | - |
| 1787783508 | 39.44° C | 30% | 1010.8 hPa | 0 mm | - | 395 W/m² | - |
| 1787783203 | 38.89° C | 30% | 1011 hPa | 0 mm | - | 419 W/m² | - |
| 1787782898 | 38.89° C | 32% | 1011 hPa | 0 mm | - | 436 W/m² | - |
| 1787782597 | 38.89° C | 31% | 1011.2 hPa | 0 mm | - | 454 W/m² | - |
| 1787782297 | 38.89° C | 30% | 1011.1 hPa | 0 mm | - | 480 W/m² | - |
| 1787781989 | 39.44° C | 32% | 1011.1 hPa | 0 mm | - | 499 W/m² | - |
| 1787781683 | 39.44° C | 29% | 1011.3 hPa | 0 mm | - | 517 W/m² | - |
| 1787781380 | 38.89° C | 30% | 1011.4 hPa | 0 mm | - | 539 W/m² | - |
| 1787781079 | 40° C | 28% | 1011.5 hPa | 0 mm | - | 559 W/m² | - |
| 1787780779 | 40° C | 29% | 1011.6 hPa | 0 mm | - | 578 W/m² | - |
| 1787780479 | 38.89° C | 30% | 1011.5 hPa | 0 mm | - | 600 W/m² | - |
| 1787780175 | 37.78° C | 35% | 1011.8 hPa | 0 mm | - | 621 W/m² | - |
| 1787779870 | 37.78° C | 32% | 1011.8 hPa | 0 mm | - | 589 W/m² | - |
| 1787779570 | 38.33° C | 32% | 1012 hPa | 0 mm | - | 641 W/m² | - |
| 1787779270 | 39.44° C | 33% | 1011.8 hPa | 0 mm | - | 691 W/m² | - |
| 1787778965 | 38.89° C | 33% | 1011.8 hPa | 0 mm | - | 722 W/m² | - |
| 1787778661 | 38.89° C | 33% | 1012 hPa | 0 mm | - | 726 W/m² | - |
| 1787778356 | 38.89° C | 37% | 1012.3 hPa | 0 mm | - | 776 W/m² | - |
| 1787778052 | 38.33° C | 36% | 1012.4 hPa | 0 mm | - | 876 W/m² | - |
* Rain latest hour (hover to see other rain measurements)
** Current wind speed in m/s (hover to see current wind gust speed)